Record,Date/Time,10,Tamb(K),Rh(%),Pres(mb),Rain,Az(deg),El(deg),TkBB(K), 22.235, 23.035, 23.835, 26.235, 30.000,
     1,10/08/05 00:01:14,11,290.92, 74.87,1015.5,Y,  0.00, 90.00,295.27, 53.67, 51.31, 42.81, 28.45, 21.16,
     2,10/08/05 00:02:14,11,291.01, 75.33,1015.1,Y,  0.00, 90.00,295.28, 52.87, 50.72, 42.06, 27.87, 20.92,
     3,10/08/05 00:03:14,11,290.88, 74.63,1015.5,Y,  0.00, 90.00,295.27, 52.40, 49.97, 41.92, 27.73, 19.62,
     4,10/08/05 00:04:14,11,290.97, 73.61,1015.8,Y,  0.00, 90.00,295.28, 52.87, 50.21, 41.93, 27.65, 20.39,
     5,10/08/05 00:05:14,11,291.01, 71.29,1015.3,Y,  0.00, 90.00,295.28, 50.43, 47.58, 39.57, 24.97, 18.04,
     6,10/08/05 00:06:14,11,290.94, 71.68,1015.5,Y,  0.00, 90.00,295.29, 51.77, 48.62, 40.77, 25.79, 18.50,
     7,10/08/05 00:07:14,11,291.00, 72.67,1015.8,Y,  0.00, 90.00,295.29, 51.01, 48.35, 40.34, 25.90, 17.45,
     8,10/08/05 00:08:14,11,290.91, 74.90,1015.7,Y,  0.00, 90.00,295.29, 51.23, 48.10, 39.83, 25.68, 17.96,
     9,10/08/05 00:09:14,11,290.87, 74.87,1015.4,Y,  0.00, 90.00,295.30, 50.95, 48.49, 39.79, 25.36, 17.72,
    10,10/08/05 00:10:14,11,290.87, 75.93,1015.3,Y,  0.00, 90.00,295.30, 51.45, 48.31, 39.95, 25.05, 18.13,
    11,10/08/05 00:11:14,11,291.00, 77.47,1016.1,Y,  0.00, 90.00,295.30, 51.14, 48.02, 40.09, 25.46, 18.27,
    12,10/08/05 00:12:14,11,290.78, 73.35,1015.2,Y,  0.00, 90.00,295.29, 50.60, 48.32, 39.85, 25.34, 18.47,
    13,10/08/05 00:13:14,11,290.73, 72.27,1015.9,Y,  0.00, 90.00,295.30, 51.26, 48.63, 39.88, 25.85, 17.46,
    14,10/08/05 00:14:14,11,291.00, 70.21,1015.7,Y,  0.00, 90.00,295.30, 50.72, 47.67, 39.62, 24.86, 17.01,
    15,10/08/05 00:15:14,11,290.91, 68.79,1015.4,Y,  0.00, 90.00,295.30, 50.62, 47.90, 39.08, 24.58, 16.54,
    16,10/08/05 00:16:14,11,291.08, 67.92,1015.9,Y,  0.00, 90.00,295.30, 50.49, 47.80, 39.71, 25.77, 17.34,
    17,10/08/05 00:17:14,11,291.05, 68.62,1015.7,Y,  0.00, 90.00,295.30, 50.57, 48.35, 39.56, 24.84, 18.64,
    18,10/08/05 00:18:14,11,290.93, 69.30,1015.9,Y,  0.00, 90.00,295.30, 50.87, 48.52, 40.35, 26.12, 19.48,
    19,10/08/05 00:19:14,11,291.07, 72.22,1016.2,Y,  0.00, 90.00,295.30, 51.37, 48.43, 40.31, 25.44, 18.07,
    20,10/08/05 00:20:14,11,291.02, 71.57,1016.0,Y,  0.00, 90.00,295.30, 52.43, 49.25, 40.97, 26.43, 18.63,
    21,10/08/05 00:21:14,11,290.98, 73.81,1015.8,Y,  0.00, 90.00,295.30, 51.88, 49.34, 40.61, 26.34, 18.51,
    22,10/08/05 00:22:14,11,290.90, 74.17,1015.9,Y,  0.00, 90.00,295.31, 51.65, 48.91, 40.05, 25.38, 17.84,
    23,10/08/05 00:23:14,11,291.01, 73.94,1015.9,Y,  0.00, 90.00,295.31, 51.91, 49.02, 40.50, 26.17, 18.25,
    24,10/08/05 00:24:15,11,291.00, 73.14,1015.9,Y,  0.00, 90.00,295.30, 52.04, 49.20, 40.79, 26.57, 18.66,
    25,10/08/05 00:25:14,11,290.91, 73.90,1015.9,Y,  0.00, 90.00,295.31, 52.87, 50.20, 41.80, 26.80, 19.80,
    26,10/08/05 00:26:14,11,290.80, 74.78,1016.1,Y,  0.00, 90.00,295.31, 52.99, 50.59, 42.14, 28.15, 20.04,
    27,10/08/05 00:27:14,11,290.84, 74.67,1015.9,Y,  0.00, 90.00,295.32, 53.61, 51.15, 43.41, 28.79, 22.07,
    28,10/08/05 00:28:15,11,290.98, 75.94,1015.9,Y,  0.00, 90.00,295.33, 54.70, 52.58, 43.95, 29.97, 22.70,
    29,10/08/05 00:29:14,11,290.86, 76.70,1016.0,Y,  0.00, 90.00,295.32, 54.68, 52.14, 43.62, 28.95, 21.27,
    30,10/08/05 00:30:14,11,290.88, 77.09,1015.7,Y,  0.00, 90.00,295.32, 52.75, 50.21, 41.15, 26.85, 19.61,
    31,10/08/05 00:31:14,11,290.90, 76.48,1015.8,Y,  0.00, 90.00,295.33, 53.24, 50.68, 42.67, 27.80, 19.54,
    32,10/08/05 00:32:14,11,290.93, 76.13,1015.8,Y,  0.00, 90.00,295.34, 53.89, 51.05, 42.45, 28.41, 22.31,
    33,10/08/05 00:33:14,11,290.97, 77.27,1015.5,Y,  0.00, 90.00,295.34, 53.59, 51.41, 42.64, 28.19, 20.32,
    34,10/08/05 00:34:14,11,290.84, 76.87,1016.2,Y,  0.00, 90.00,295.35, 53.40, 51.27, 42.98, 27.96, 20.65,
    35,10/08/05 00:35:14,11,290.90, 76.66,1016.0,Y,  0.00, 90.00,295.36, 53.42, 50.71, 42.42, 28.20, 20.06,
    36,10/08/05 00:36:14,11,291.00, 77.82,1016.0,Y,  0.00, 90.00,295.34, 53.52, 51.16, 42.14, 27.75, 20.25,
    37,10/08/05 00:37:14,11,290.82, 78.69,1016.1,Y,  0.00, 90.00,295.36, 53.26, 50.80, 42.45, 27.46, 19.65,
    38,10/08/05 00:38:14,11,290.93, 77.34,1015.8,Y,  0.00, 90.00,295.36, 53.06, 49.89, 41.41, 26.78, 19.45,
    39,10/08/05 00:39:14,11,290.96, 78.43,1015.9,Y,  0.00, 90.00,295.36, 53.00, 50.13, 41.18, 26.02, 19.61,
    40,10/08/05 00:40:14,11,290.91, 76.92,1016.0,Y,  0.00, 90.00,295.37, 52.90, 50.11, 41.84, 26.27, 19.26,
    41,10/08/05 00:41:15,11,290.94, 76.50,1015.8,Y,  0.00, 90.00,295.37, 53.73, 50.29, 41.74, 26.52, 19.35,
    42,10/08/05 00:42:14,11,290.99, 77.64,1016.2,Y,  0.00, 90.00,295.37, 53.43, 50.75, 42.65, 27.19, 19.11,
    43,10/08/05 00:43:14,11,290.89, 79.74,1016.0,Y,  0.00, 90.00,295.37, 53.19, 50.44, 41.89, 26.96, 18.53,
    44,10/08/05 00:44:15,11,290.83, 78.42,1015.9,Y,  0.00, 90.00,295.36, 53.54, 50.93, 42.44, 27.25, 19.50,
    45,10/08/05 00:45:14,11,290.84, 79.24,1015.9,Y,  0.00, 90.00,295.36, 53.89, 51.11, 42.25, 27.17, 20.34,
    46,10/08/05 00:46:14,11,290.85, 78.46,1015.8,Y,  0.00, 90.00,295.35, 53.89, 50.78, 41.84, 27.11, 18.69,
    47,10/08/05 00:47:14,11,290.85, 78.95,1016.0,Y,  0.00, 90.00,295.37, 53.53, 50.66, 41.94, 26.71, 19.10,
    48,10/08/05 00:48:14,11,290.85, 78.54,1016.0,Y,  0.00, 90.00,295.36, 54.01, 50.90, 42.04, 27.46, 19.81,
    49,10/08/05 00:49:14,11,290.89, 77.79,1016.0,Y,  0.00, 90.00,295.36, 53.73, 50.73, 42.36, 27.62, 19.47,
    50,10/08/05 00:50:14,11,290.88, 78.46,1016.1,Y,  0.00, 90.00,295.36, 54.12, 51.58, 43.03, 27.87, 20.45,
    51,10/08/05 00:51:14,11,290.86, 78.74,1015.9,Y,  0.00, 90.00,295.35, 53.91, 51.72, 42.26, 27.87, 19.52,
    52,10/08/05 00:52:14,11,290.85, 78.98,1015.7,Y,  0.00, 90.00,295.36, 53.51, 51.41, 43.10, 28.57, 20.01,
    53,10/08/05 00:53:14,11,290.78, 79.22,1016.1,Y,  0.00, 90.00,295.35, 55.45, 52.66, 43.46, 27.99, 20.96,
    54,10/08/05 00:54:14,11,290.81, 79.00,1015.8,Y,  0.00, 90.00,295.35, 54.36, 51.96, 42.38, 27.55, 20.36,
    55,10/08/05 00:55:14,11,290.71, 78.14,1016.2,Y,  0.00, 90.00,295.35, 53.84, 51.57, 42.59, 27.80, 19.92,
    56,10/08/05 00:56:14,11,290.80, 78.60,1016.0,Y,  0.00, 90.00,295.35, 53.20, 50.12, 41.71, 26.67, 18.03,
    57,10/08/05 00:57:14,11,290.87, 78.30,1016.4,Y,  0.00, 90.00,295.33, 53.89, 50.77, 42.02, 27.56, 19.61,
    58,10/08/05 00:58:14,11,290.86, 79.79,1016.5,Y,  0.00, 90.00,295.32, 53.08, 50.37, 41.84, 26.38, 17.03,
    59,10/08/05 00:59:14,11,290.84, 77.43,1016.2,Y,  0.00, 90.00,295.32, 52.50, 50.15, 41.80, 25.51, 17.09,
    60,10/08/05 01:00:14,11,290.88, 74.37,1016.0,Y,  0.00, 90.00,295.30, 52.40, 49.66, 41.42, 26.07, 18.61,
    61,10/08/05 01:01:14,11,290.78, 73.31,1016.3,Y,  0.00, 90.00,295.30, 51.85, 48.91, 40.10, 25.48, 17.22,
    62,10/08/05 01:02:14,11,290.85, 72.44,1015.9,Y,  0.00, 90.00,295.30, 52.78, 49.76, 40.98, 25.53, 17.73,
    63,10/08/05 01:03:14,11,290.91, 74.20,1016.0,Y,  0.00, 90.00,295.29, 52.06, 49.39, 40.68, 25.32, 17.51,
    64,10/08/05 01:04:14,11,291.00, 75.43,1016.6,Y,  0.00, 90.00,295.28, 52.27, 49.58, 40.62, 25.46, 17.83,
    65,10/08/05 01:05:14,11,290.85, 73.46,1016.2,Y,  0.00, 90.00,295.27, 51.83, 48.49, 39.93, 25.37, 18.09,
    66,10/08/05 01:06:14,11,290.88, 73.10,1016.6,Y,  0.00, 90.00,295.26, 52.15, 48.83, 40.64, 24.91, 17.22,
    67,10/08/05 01:07:14,11,290.85, 72.85,1016.7,Y,  0.00, 90.00,295.25, 52.21, 49.22, 40.39, 25.61, 17.73,
    68,10/08/05 01:08:14,11,290.83, 71.54,1016.6,Y,  0.00, 90.00,295.23, 52.10, 49.45, 40.37, 24.80, 17.31,
    69,10/08/05 01:09:14,11,290.93, 73.00,1016.7,Y,  0.00, 90.00,295.23, 52.16, 49.04, 40.19, 25.49, 16.69,
    70,10/08/05 01:10:14,11,290.98, 72.68,1016.3,Y,  0.00, 90.00,295.21, 52.32, 49.38, 40.54, 26.24, 17.26,
    71,10/08/05 01:11:15,11,290.98, 73.86,1016.4,Y,  0.00, 90.00,295.21, 52.98, 50.00, 41.09, 25.82, 17.03,
    72,10/08/05 01:12:14,11,290.91, 72.98,1016.0,Y,  0.00, 90.00,295.20, 53.08, 50.17, 41.54, 25.75, 17.63,
    73,10/08/05 01:13:14,11,290.80, 74.23,1016.2,Y,  0.00, 90.00,295.19, 52.76, 49.67, 41.41, 25.47, 18.23,
    74,10/08/05 01:14:15,11,290.87, 73.72,1016.2,Y,  0.00, 90.00,295.19, 52.59, 49.29, 40.68, 25.56, 18.36,
    75,10/08/05 01:15:14,11,290.86, 74.67,1016.0,Y,  0.00, 90.00,295.18, 53.12, 50.48, 41.14, 26.25, 17.33,
    76,10/08/05 01:16:14,11,290.79, 75.57,1016.7,Y,  0.00, 90.00,295.17, 52.95, 49.88, 41.31, 26.05, 17.74,
    77,10/08/05 01:17:14,11,290.93, 75.81,1016.2,Y,  0.00, 90.00,295.16, 52.40, 50.11, 41.33, 25.63, 17.52,
    78,10/08/05 01:18:14,11,290.86, 75.94,1016.5,Y,  0.00, 90.00,295.15, 52.82, 50.35, 41.37, 25.95, 17.61,
    79,10/08/05 01:19:14,11,290.81, 75.11,1016.5,Y,  0.00, 90.00,295.15, 52.78, 50.33, 41.36, 26.10, 17.76,
    80,10/08/05 01:20:14,11,290.95, 74.31,1016.4,Y,  0.00, 90.00,295.15, 53.13, 50.05, 41.16, 25.73, 17.91,
    81,10/08/05 01:21:14,11,290.80, 73.43,1016.7,Y,  0.00, 90.00,295.15, 53.23, 50.16, 41.42, 26.06, 17.93,
    82,10/08/05 01:22:14,11,290.97, 73.53,1017.1,Y,  0.00, 90.00,295.14, 53.31, 50.31, 41.19, 26.24, 17.95,
    83,10/08/05 01:23:14,11,290.93, 73.25,1016.4,Y,  0.00, 90.00,295.12, 53.56, 50.50, 41.34, 26.17, 17.93,
    84,10/08/05 01:24:14,11,290.88, 73.71,1016.9,Y,  0.00, 90.00,295.14, 53.70, 51.05, 42.23, 26.74, 18.22,
    85,10/08/05 01:25:14,11,290.95, 73.38,1016.3,Y,  0.00, 90.00,295.13, 54.00, 51.12, 42.84, 27.33, 19.79,
    86,10/08/05 01:26:14,11,291.01, 74.68,1016.6,Y,  0.00, 90.00,295.13, 54.01, 51.57, 42.55, 27.42, 19.64,
    87,10/08/05 01:27:14,11,290.86, 74.75,1016.5,Y,  0.00, 90.00,295.12, 54.84, 52.18, 43.24, 27.99, 20.49,
    88,10/08/05 01:28:14,11,290.89, 73.32,1016.9,Y,  0.00, 90.00,295.13, 54.75, 52.33, 43.49, 28.58, 20.74,
    89,10/08/05 01:29:14,11,290.88, 72.63,1017.0,Y,  0.00, 90.00,295.13, 54.96, 52.18, 43.53, 28.75, 21.73,
    90,10/08/05 01:30:14,11,290.90, 73.28,1016.5,Y,  0.00, 90.00,295.13, 54.80, 52.53, 43.10, 28.18, 21.17,
    91,10/08/05 01:31:14,11,291.04, 74.19,1016.7,Y,  0.00, 90.00,295.13, 55.81, 53.24, 44.19, 29.27, 21.49,
    92,10/08/05 01:32:14,11,290.83, 73.98,1016.6,Y,  0.00, 90.00,295.13, 55.10, 52.04, 44.01, 28.57, 21.14,
    93,10/08/05 01:33:14,11,290.99, 74.36,1016.7,Y,  0.00, 90.00,295.14, 54.33, 52.00, 42.65, 27.62, 20.57,
    94,10/08/05 01:34:14,11,290.98, 74.33,1016.8,Y,  0.00, 90.00,295.13, 55.23, 52.46, 43.60, 28.51, 21.00,
    95,10/08/05 01:35:14,11,290.94, 74.26,1017.3,Y,  0.00, 90.00,295.13, 54.30, 52.14, 42.85, 28.39, 20.71,
    96,10/08/05 01:36:14,11,290.96, 74.15,1017.0,Y,  0.00, 90.00,295.14, 55.30, 52.20, 43.74, 29.10, 21.54,
    97,10/08/05 01:37:14,11,290.99, 73.50,1017.2,Y,  0.00, 90.00,295.14, 54.37, 51.82, 42.70, 27.79, 20.22,
    98,10/08/05 01:38:14,11,291.02, 73.97,1017.1,Y,  0.00, 90.00,295.15, 54.91, 52.01, 42.85, 28.12, 21.05,
    99,10/08/05 01:39:14,11,291.08, 74.15,1017.4,Y,  0.00, 90.00,295.15, 55.85, 53.14, 44.60, 29.61, 22.77,
   100,10/08/05 01:40:15,11,290.87, 74.72,1016.9,Y,  0.00, 90.00,295.14, 54.71, 52.13, 43.28, 28.09, 20.17,
   101,10/08/05 01:41:14,11,290.94, 75.31,1017.1,Y,  0.00, 90.00,295.17, 54.47, 51.55, 42.74, 27.46, 20.93,
   102,10/08/05 01:42:14,11,290.99, 75.19,1016.9,Y,  0.00, 90.00,295.17, 54.57, 51.81, 43.24, 28.42, 20.08,
   103,10/08/05 01:43:14,11,290.95, 73.90,1016.8,Y,  0.00, 90.00,295.17, 53.74, 51.72, 42.48, 27.26, 20.08,
   104,10/08/05 01:44:14,11,290.99, 74.33,1016.9,Y,  0.00, 90.00,295.18, 54.27, 51.37, 43.21, 28.36, 20.37,
   105,10/08/05 01:45:14,11,290.94, 73.91,1017.2,Y,  0.00, 90.00,295.18, 54.54, 51.42, 42.92, 27.44, 20.39,
   106,10/08/05 01:46:14,11,291.09, 75.43,1016.8,Y,  0.00, 90.00,295.19, 56.83, 53.93, 45.05, 30.85, 24.06,
   107,10/08/05 01:47:14,11,290.99, 74.91,1017.2,Y,  0.00, 90.00,295.21, 55.55, 53.29, 44.68, 29.66, 22.24,
   108,10/08/05 01:48:14,11,290.90, 74.53,1016.8,Y,  0.00, 90.00,295.21, 57.00, 53.98, 45.65, 30.96, 24.23,
   109,10/08/05 01:49:14,11,291.02, 75.80,1016.8,Y,  0.00, 90.00,295.22, 56.45, 54.15, 45.66, 31.19, 24.78,
   110,10/08/05 01:50:14,11,290.96, 75.92,1017.3,Y,  0.00, 90.00,295.23, 57.10, 54.88, 46.33, 32.21, 25.61,
   111,10/08/05 01:51:14,11,290.92, 76.65,1017.2,Y,  0.00, 90.00,295.23, 58.74, 56.44, 47.94, 33.83, 28.56,
   112,10/08/05 01:52:14,11,290.99, 76.64,1017.2,Y,  0.00, 90.00,295.25, 59.53, 57.55, 48.82, 34.61, 29.27,
   113,10/08/05 01:53:14,11,290.84, 76.58,1016.8,Y,  0.00, 90.00,295.26, 59.12, 56.28, 48.41, 34.11, 27.69,
   114,10/08/05 01:54:14,11,290.99, 76.77,1016.8,Y,  0.00, 90.00,295.25, 57.70, 54.89, 46.81, 32.39, 27.10,
   115,10/08/05 01:55:14,11,290.87, 77.56,1017.0,Y,  0.00, 90.00,295.27, 56.94, 55.07, 46.07, 31.63, 24.28,
   116,10/08/05 01:56:14,11,290.82, 76.19,1017.2,Y,  0.00, 90.00,295.28, 56.13, 53.76, 45.40, 30.32, 23.92,
   117,10/08/05 01:57:14,11,290.99, 77.72,1017.4,Y,  0.00, 90.00,295.28, 56.23, 53.92, 45.29, 31.03, 24.20,
   118,10/08/05 01:58:14,11,290.83, 77.08,1017.2,Y,  0.00, 90.00,295.30, 55.94, 53.08, 44.75, 29.96, 22.99,
   119,10/08/05 01:59:14,11,291.00, 78.37,1017.3,Y,  0.00, 90.00,295.30, 57.11, 54.31, 45.87, 31.50, 24.91,
   120,10/08/05 02:00:14,11,290.84, 78.47,1017.0,Y,  0.00, 90.00,295.30, 57.05, 54.92, 46.45, 32.27, 25.73,
   121,10/08/05 02:01:15,11,290.81, 78.66,1017.7,Y,  0.00, 90.00,295.30, 57.71, 55.52, 47.01, 32.83, 26.56,
   122,10/08/05 02:02:14,11,290.83, 78.21,1017.1,Y,  0.00, 90.00,295.33, 58.65, 56.42, 48.08, 34.51, 28.07,
   123,10/08/05 02:03:14,11,290.76, 78.15,1017.0,Y,  0.00, 90.00,295.32, 56.54, 54.77, 46.05, 31.50, 24.82,
   124,10/08/05 02:04:14,11,290.78, 78.26,1017.5,Y,  0.00, 90.00,295.32, 56.68, 54.12, 45.53, 30.53, 23.53,
   125,10/08/05 02:05:14,11,290.72, 78.66,1017.2,Y,  0.00, 90.00,295.33, 56.06, 53.67, 44.98, 29.90, 23.17,
   126,10/08/05 02:06:14,11,290.85, 79.20,1016.8,Y,  0.00, 90.00,295.32, 55.22, 52.41, 43.67, 29.11, 21.84,
   127,10/08/05 02:07:14,11,290.78, 78.13,1017.0,Y,  0.00, 90.00,295.33, 55.26, 52.37, 43.88, 29.41, 21.55,
   128,10/08/05 02:08:14,11,290.84, 78.64,1016.4,Y,  0.00, 90.00,295.32, 54.92, 52.71, 43.70, 28.66, 21.19,
   129,10/08/05 02:09:14,11,290.89, 78.32,1017.1,Y,  0.00, 90.00,295.33, 54.92, 52.80, 44.22, 29.33, 22.28,
   130,10/08/05 02:10:14,11,290.92, 78.91,1017.4,Y,  0.00, 90.00,295.35, 55.46, 52.73, 44.67, 29.74, 21.79,
   131,10/08/05 02:11:14,11,290.78, 78.84,1016.5,Y,  0.00, 90.00,295.34, 54.18, 51.98, 43.86, 29.07, 20.67,
   132,10/08/05 02:12:14,11,290.83, 79.05,1017.5,Y,  0.00, 90.00,295.34, 54.65, 52.46, 43.08, 28.61, 20.77,
   133,10/08/05 02:13:14,11,290.86, 79.26,1016.8,Y,  0.00, 90.00,295.34, 53.69, 51.14, 42.67, 27.60, 19.67,
   134,10/08/05 02:14:14,11,290.84, 78.70,1016.8,Y,  0.00, 90.00,295.35, 53.28, 50.57, 42.41, 26.98, 19.39,
   135,10/08/05 02:15:14,11,290.78, 79.38,1016.8,Y,  0.00, 90.00,295.35, 53.12, 51.03, 41.91, 27.04, 18.84,
   136,10/08/05 02:16:15,11,290.87, 78.87,1017.3,Y,  0.00, 90.00,295.36, 53.28, 50.12, 42.49, 27.29, 19.89,
   137,10/08/05 02:17:14,11,290.79, 78.59,1017.6,Y,  0.00, 90.00,295.36, 53.51, 50.88, 42.32, 27.71, 20.12,
   138,10/08/05 02:18:14,11,290.86, 77.60,1016.8,Y,  0.00, 90.00,295.37, 53.62, 50.88, 42.18, 27.34, 20.43,
   139,10/08/05 02:19:14,11,290.93, 76.75,1016.8,Y,  0.00, 90.00,295.36, 53.18, 50.61, 41.72, 26.73, 19.14,
   140,10/08/05 02:20:14,11,290.89, 76.42,1017.6,Y,  0.00, 90.00,295.37, 53.14, 50.66, 41.89, 28.01, 20.06,
   141,10/08/05 02:21:14,11,290.84, 77.10,1017.0,Y,  0.00, 90.00,295.38, 53.19, 51.31, 42.29, 27.84, 20.41,
   142,10/08/05 02:22:15,11,290.94, 76.11,1017.4,Y,  0.00, 90.00,295.38, 52.74, 49.85, 41.06, 26.56, 19.33,
   143,10/08/05 02:23:14,11,291.02, 77.03,1017.1,Y,  0.00, 90.00,295.38, 52.70, 50.10, 42.08, 26.98, 19.28,
   144,10/08/05 02:24:14,11,290.98, 76.47,1017.0,Y,  0.00, 90.00,295.38, 52.51, 49.35, 41.50, 26.49, 18.93,
   145,10/08/05 02:25:14,11,291.00, 77.38,1016.8,Y,  0.00, 90.00,295.40, 52.34, 50.28, 41.92, 27.13, 20.23,
   146,10/08/05 02:26:14,11,290.93, 77.68,1017.1,Y,  0.00, 90.00,295.40, 52.74, 49.84, 41.50, 26.23, 18.62,
   147,10/08/05 02:27:14,11,290.88, 78.47,1017.1,Y,  0.00, 90.00,295.41, 51.95, 49.12, 40.61, 26.19, 18.94,
   148,10/08/05 02:28:14,11,290.87, 77.69,1017.1,Y,  0.00, 90.00,295.42, 52.87, 50.19, 41.41, 26.86, 19.91,
   149,10/08/05 02:29:14,11,290.93, 77.71,1017.2,Y,  0.00, 90.00,295.42, 52.57, 50.10, 41.63, 27.34, 18.75,
   150,10/08/05 02:30:14,11,290.98, 77.26,1017.5,Y,  0.00, 90.00,295.43, 53.06, 50.17, 41.85, 28.08, 21.40,
   151,10/08/05 02:31:14,11,290.77, 76.25,1017.0,Y,  0.00, 90.00,295.44, 52.86, 50.17, 41.78, 27.49, 19.44,
   152,10/08/05 02:32:15,11,291.06, 75.75,1017.5,Y,  0.00, 90.00,295.43, 53.00, 50.52, 41.88, 27.22, 19.72,
   153,10/08/05 02:33:14,11,291.00, 75.73,1017.2,Y,  0.00, 90.00,295.45, 53.26, 50.79, 42.39, 27.70, 20.94,
   154,10/08/05 02:34:14,11,290.90, 73.93,1016.6,Y,  0.00, 90.00,295.46, 52.93, 51.00, 42.20, 28.08, 20.94,
   155,10/08/05 02:35:14,11,291.05, 75.38,1016.9,Y,  0.00, 90.00,295.45, 53.35, 51.03, 42.50, 28.03, 21.14,
   156,10/08/05 02:36:14,11,290.94, 76.47,1017.3,Y,  0.00, 90.00,295.46, 53.37, 51.41, 42.76, 28.68, 22.18,
   157,10/08/05 02:37:14,11,290.85, 75.93,1017.3,Y,  0.00, 90.00,295.46, 54.40, 51.61, 43.41, 28.70, 22.42,
   158,10/08/05 02:38:14,11,291.00, 75.01,1017.4,Y,  0.00, 90.00,295.47, 54.96, 52.49, 43.98, 30.21, 23.81,
   159,10/08/05 02:39:14,11,291.05, 76.58,1017.3,Y,  0.00, 90.00,295.47, 56.25, 53.81, 45.53, 32.10, 26.20,
   160,10/08/05 02:40:14,11,290.82, 77.63,1017.2,Y,  0.00, 90.00,295.47, 55.35, 53.86, 45.70, 32.43, 26.14,
   161,10/08/05 02:41:14,11,290.76, 77.47,1017.8,Y,  0.00, 90.00,295.48, 56.33, 54.43, 46.21, 32.43, 26.00,
   162,10/08/05 02:42:14,11,290.82, 78.26,1017.2,Y,  0.00, 90.00,295.48, 55.32, 52.64, 45.39, 31.35, 24.10,
   163,10/08/05 02:43:14,11,290.79, 76.35,1017.0,Y,  0.00, 90.00,295.47, 54.69, 52.43, 44.61, 30.63, 23.46,
   164,10/08/05 02:44:14,11,290.81, 76.60,1017.7,Y,  0.00, 90.00,295.49, 54.42, 51.88, 43.61, 29.76, 23.12,
   165,10/08/05 02:45:14,11,290.83, 75.03,1017.9,Y,  0.00, 90.00,295.48, 54.95, 52.82, 44.73, 30.94, 25.32,
   166,10/08/05 02:46:14,11,290.86, 75.94,1017.4,Y,  0.00, 90.00,295.48, 55.45, 53.01, 45.61, 31.56, 25.20,
   167,10/08/05 02:47:14,11,290.83, 77.26,1017.2,Y,  0.00, 90.00,295.47, 54.91, 52.45, 44.74, 30.71, 24.28,
   168,10/08/05 02:48:15,11,290.86, 77.44,1017.4,Y,  0.00, 90.00,295.47, 54.73, 52.20, 44.19, 30.68, 24.75,
   169,10/08/05 02:49:14,11,290.80, 77.57,1017.5,Y,  0.00, 90.00,295.49, 54.39, 51.81, 43.19, 29.22, 21.62,
   170,10/08/05 02:50:14,11,290.89, 77.78,1017.5,Y,  0.00, 90.00,295.47, 53.92, 50.62, 42.94, 29.27, 22.83,
   171,10/08/05 02:51:14,11,290.85, 78.23,1017.8,Y,  0.00, 90.00,295.47, 53.68, 52.04, 43.88, 29.81, 23.16,
   172,10/08/05 02:52:14,11,290.78, 77.75,1017.3,Y,  0.00, 90.00,295.48, 54.54, 52.23, 43.41, 30.01, 23.45,
   173,10/08/05 02:53:14,11,290.78, 78.29,1017.6,Y,  0.00, 90.00,295.47, 54.54, 51.96, 44.54, 31.12, 24.62,
   174,10/08/05 02:54:14,11,290.74, 79.01,1017.1,Y,  0.00, 90.00,295.46, 53.77, 51.71, 43.42, 29.68, 23.39,
   175,10/08/05 02:55:14,11,290.83, 78.97,1017.1,Y,  0.00, 90.00,295.46, 53.65, 50.90, 43.67, 29.44, 23.73,
   176,10/08/05 02:56:14,11,290.81, 79.52,1017.8,Y,  0.00, 90.00,295.46, 53.33, 51.37, 42.97, 29.47, 23.15,
   177,10/08/05 02:57:14,11,290.83, 79.02,1017.2,Y,  0.00, 90.00,295.46, 53.31, 50.76, 42.51, 28.87, 23.18,
   178,10/08/05 02:58:14,11,290.84, 78.55,1017.5,Y,  0.00, 90.00,295.47, 53.26, 50.25, 42.58, 28.48, 21.53,
   179,10/08/05 02:59:14,11,290.90, 79.42,1017.5,Y,  0.00, 90.00,295.46, 52.63, 50.25, 42.23, 28.24, 20.79,
   180,10/08/05 03:00:14,11,290.86, 79.01,1017.2,Y,  0.00, 90.00,295.45, 52.80, 50.00, 42.47, 28.60, 22.17,
   181,10/08/05 03:01:14,11,290.93, 79.09,1017.4,Y,  0.00, 90.00,295.45, 53.19, 51.01, 42.95, 29.55, 22.42,
   182,10/08/05 03:02:14,11,290.97, 79.37,1017.4,Y,  0.00, 90.00,295.45, 51.42, 49.90, 41.02, 28.09, 20.98,
   183,10/08/05 03:03:14,11,290.80, 75.11,1017.4,Y,  0.00, 90.00,295.44, 51.70, 48.69, 41.04, 27.03, 19.88,
   184,10/08/05 03:04:14,11,291.11, 73.90,1017.7,Y,  0.00, 90.00,295.44, 51.22, 48.88, 40.49, 26.73, 20.39,
   185,10/08/05 03:05:14,11,290.98, 73.86,1017.5,Y,  0.00, 90.00,295.45, 49.51, 47.43, 39.67, 25.73, 19.37,
   186,10/08/05 03:06:14,11,290.89, 73.47,1017.4,Y,  0.00, 90.00,295.45, 49.35, 47.39, 39.41, 25.46, 18.53,
   187,10/08/05 03:07:14,11,291.06, 70.86,1017.1,Y,  0.00, 90.00,295.45, 49.72, 47.51, 39.29, 25.65, 18.53,
   188,10/08/05 03:08:14,11,291.24, 67.91,1017.3,Y,  0.00, 90.00,295.45, 49.76, 47.03, 39.07, 25.62, 18.28,
   189,10/08/05 03:09:14,11,291.29, 67.96,1017.6,Y,  0.00, 90.00,295.45, 49.04, 46.79, 39.16, 25.35, 17.73,
   190,10/08/05 03:10:14,11,291.32, 69.51,1017.5,Y,  0.00, 90.00,295.45, 49.26, 46.91, 39.31, 25.57, 18.34,
   191,10/08/05 03:11:14,11,291.29, 69.09,1017.9,Y,  0.00, 90.00,295.45, 49.94, 47.01, 39.00, 25.39, 19.07,
   192,10/08/05 03:12:14,11,291.22, 69.01,1017.4,Y,  0.00, 90.00,295.45, 49.41, 47.63, 39.31, 26.17, 19.51,
   193,10/08/05 03:13:14,11,291.20, 69.63,1017.3,Y,  0.00, 90.00,295.45, 49.89, 47.48, 39.46, 26.54, 18.98,
   194,10/08/05 03:14:15,11,291.26, 68.18,1017.3,Y,  0.00, 90.00,295.44, 49.16, 46.98, 38.85, 25.33, 17.96,
   195,10/08/05 03:15:14,11,291.29, 69.17,1017.8,Y,  0.00, 90.00,295.45, 48.70, 46.59, 38.37, 24.99, 18.21,
   196,10/08/05 03:16:14,11,291.24, 69.12,1017.8,Y,  0.00, 90.00,295.44, 48.74, 46.58, 38.54, 25.18, 18.21,
   197,10/08/05 03:17:14,11,291.20, 70.18,1017.3,Y,  0.00, 90.00,295.44, 48.43, 46.76, 39.15, 25.41, 18.62,
   198,10/08/05 03:18:14,11,291.26, 71.86,1017.7,Y,  0.00, 90.00,295.45, 49.14, 46.68, 39.54, 25.68, 19.64,
   199,10/08/05 03:19:14,11,291.12, 73.57,1017.5,Y,  0.00, 90.00,295.46, 49.19, 46.72, 39.11, 26.59, 19.05,
   200,10/08/05 03:20:14,11,291.18, 74.95,1018.4,Y,  0.00, 90.00,295.47, 49.17, 47.47, 39.67, 27.11, 20.28,
   201,10/08/05 03:21:14,11,291.05, 75.44,1017.7,Y,  0.00, 90.00,295.48, 49.56, 47.13, 40.12, 27.14, 21.57,
   202,10/08/05 03:22:14,11,291.01, 74.31,1018.2,Y,  0.00, 90.00,295.49, 49.76, 47.48, 40.20, 27.72, 21.05,
   203,10/08/05 03:23:14,11,291.14, 73.53,1018.0,Y,  0.00, 90.00,295.49, 51.30, 48.43, 40.85, 28.35, 23.45,
   204,10/08/05 03:24:14,11,291.22, 76.56,1017.9,Y,  0.00, 90.00,295.50, 53.94, 52.37, 44.89, 33.28, 28.16,
   205,10/08/05 03:25:14,11,290.92, 78.00,1017.7,Y,  0.00, 90.00,295.52, 52.78, 50.96, 43.15, 30.57, 25.18,
   206,10/08/05 03:26:14,11,290.93, 79.07,1017.3,Y,  0.00, 90.00,295.53, 50.56, 48.14, 41.04, 28.56, 22.62,
   207,10/08/05 03:27:14,11,290.98, 79.07,1017.8,Y,  0.00, 90.00,295.54, 49.36, 47.37, 40.08, 27.94, 21.67,
   208,10/08/05 03:28:14,11,290.93, 78.88,1018.0,Y,  0.00, 90.00,295.53, 49.84, 47.86, 40.28, 27.96, 23.03,
   209,10/08/05 03:29:14,11,290.96, 77.33,1018.0,Y,  0.00, 90.00,295.53, 49.10, 46.85, 39.79, 27.02, 21.25,
   210,10/08/05 03:30:14,11,290.91, 78.74,1017.8,Y,  0.00, 90.00,295.54, 48.71, 46.37, 39.48, 26.91, 20.96,
   211,10/08/05 03:31:14,11,290.76, 78.65,1017.7,Y,  0.00, 90.00,295.53, 47.90, 45.62, 38.71, 26.55, 20.35,
   212,10/08/05 03:32:14,11,290.86, 78.16,1018.0,Y,  0.00, 90.00,295.55, 47.89, 45.81, 38.79, 26.76, 20.65,
   213,10/08/05 03:33:14,11,290.89, 78.68,1018.1,Y,  0.00, 90.00,295.53, 47.40, 45.42, 38.14, 25.23, 18.85,
   214,10/08/05 03:34:14,11,290.87, 78.68,1017.7,Y,  0.00, 90.00,295.53, 47.79, 45.80, 38.67, 26.74, 20.03,
   215,10/08/05 03:35:14,11,290.88, 79.27,1017.8,Y,  0.00, 90.00,295.52, 47.55, 45.15, 37.95, 25.39, 18.91,
   216,10/08/05 03:36:14,11,290.79, 80.08,1018.0,Y,  0.00, 90.00,295.54, 46.77, 44.82, 37.53, 25.07, 18.08,
   217,10/08/05 03:37:14,11,290.83, 79.04,1018.2,Y,  0.00, 90.00,295.54, 47.91, 45.73, 38.25, 25.91, 18.94,
   218,10/08/05 03:38:15,11,290.77, 79.67,1017.6,Y,  0.00, 90.00,295.54, 46.30, 45.01, 37.35, 24.87, 18.38,
   219,10/08/05 03:39:14,11,290.83, 79.15,1017.6,Y,  0.00, 90.00,295.54, 47.48, 44.85, 37.63, 25.58, 19.49,